Danville, IL

12:07 PM CST on February 27, 2017 (GMT -0600)
Vermilion County

Weather History for KDNV - January, 2014

Change the Weather History Date:

Monday, January 20, 2014

  Actual Average (KCMI) Record (KCMI)
Temperature  
Mean Temperature 32 °F -  
Max Temperature 37 °F 30 °F 54 °F (2006)
Min Temperature 24 °F 14 °F -4 °F (2000)
Degree Days  
Heating Degree Days 34    
Moisture  
Dew Point 27 °F    
Average Humidity 82    
Maximum Humidity 92    
Minimum Humidity 65    
Precipitation  
Precipitation 0.00 in - - ()
Sea Level Pressure  
Sea Level Pressure 29.82 in    
Wind  
Wind Speed 10 mph (WNW)    
Max Wind Speed 21 mph    
Max Gust Speed 24 mph    
Visibility 10 miles    
Events Snow    
Averages and records for this station are not official NWS values.
T = Trace of Precipitation, MM = Missing Value Source: NWS Daily Summary

Daily Weather History Graph

Daily Weather History Graph

Search for Another Location

Airport or City:

Trip Planner

Search our weather history database for the weather conditions in past years. The results will help you decide how hot, cold, wet, or windy it might be!

Date:

Astronomy

Jan. 20, 2014 Rise Set
Actual Time 7:08 AM CST 4:54 PM CST
Civil Twilight 6:38 AM CST 5:24 PM CST
Nautical Twilight 6:05 AM CST 5:57 PM CST
Astronomical Twilight 5:33 AM CST 6:29 PM CST
Moon 9:29 PM CST (1/20) 9:07 AM CST (1/20)
Length of Visible Light 10h 45m
Length of Day
9h 46m
Waning Gibbous, 82% of the Moon is Illuminated
Jan 20
Waning Gibbous
Jan 23
Last Quarter
Jan 30
New
Feb 6
First Quarter
Feb 14
Full

Hourly Weather History & Observations

Time (CST) Temp. Windchill Dew Point Humidity Pressure Visibility Wind Dir Wind Speed Gust Speed Precip Events Conditions
12:15 AM 36.7 °F 27.2 °F 26.1 °F 65% 29.62 in 10.0 mi WSW 16.1 mph - N/A   Clear
12:35 AM 36.0 °F 26.7 °F 26.1 °F 67% 29.63 in 10.0 mi WSW 15.0 mph - N/A   Clear
12:55 AM 36.0 °F 26.7 °F 26.2 °F 68% 29.64 in 10.0 mi WSW 15.0 mph 20.7 mph N/A   Clear
1:15 AM 36.5 °F 27.4 °F 26.6 °F 67% 29.65 in 10.0 mi West 15.0 mph 19.6 mph N/A   Clear
1:35 AM 35.8 °F 25.7 °F 27.1 °F 71% 29.65 in 10.0 mi West 17.3 mph 21.9 mph N/A   Clear
1:55 AM 34.5 °F 25.7 °F 27.0 °F 74% 29.67 in 10.0 mi West 12.7 mph - N/A   Clear
2:15 AM 32.9 °F 25.3 °F 26.4 °F 77% 29.68 in 10.0 mi West 9.2 mph - N/A   Clear
2:35 AM 32.4 °F 24.0 °F 26.4 °F 79% 29.69 in 10.0 mi West 10.4 mph - N/A   Clear
2:55 AM 33.8 °F 25.8 °F 27.9 °F 79% 29.70 in 10.0 mi WNW 10.4 mph - N/A   Clear
3:15 AM 33.3 °F 25.7 °F 28.0 °F 81% 29.70 in 10.0 mi WNW 9.2 mph - N/A   Clear
3:35 AM 33.1 °F 25.5 °F 28.0 °F 82% 29.70 in 10.0 mi WNW 9.2 mph - N/A   Clear
3:55 AM 32.4 °F 24.6 °F 28.0 °F 84% 29.71 in 10.0 mi WNW 9.2 mph - N/A   Clear
4:15 AM 32.0 °F 24.2 °F 27.9 °F 85% 29.73 in 10.0 mi West 9.2 mph - N/A   Clear
4:35 AM 32.0 °F 24.2 °F 27.9 °F 85% 29.74 in 10.0 mi West 9.2 mph - N/A   Clear
4:55 AM 31.6 °F 24.4 °F 27.5 °F 85% 29.75 in 10.0 mi West 8.1 mph - N/A   Clear
5:15 AM 31.1 °F 23.1 °F 27.1 °F 85% 29.76 in 10.0 mi WNW 9.2 mph - N/A   Clear
5:35 AM 30.7 °F 23.3 °F 26.8 °F 85% 29.77 in 10.0 mi WNW 8.1 mph - N/A   Clear
5:55 AM 29.5 °F 21.8 °F 26.1 °F 87% 29.78 in 10.0 mi WNW 8.1 mph - N/A   Clear
6:15 AM 29.5 °F 21.8 °F 26.1 °F 87% 29.78 in 10.0 mi WNW 8.1 mph - N/A   Clear
6:35 AM 29.7 °F 22.0 °F 26.1 °F 86% 29.78 in 10.0 mi WNW 8.1 mph - N/A   Clear
6:55 AM 29.1 °F 22.1 °F 25.7 °F 87% 29.79 in 10.0 mi WNW 6.9 mph - N/A   Clear
7:15 AM 28.2 °F 20.2 °F 25.2 °F 88% 29.81 in 10.0 mi West 8.1 mph - N/A   Clear
7:35 AM 27.0 °F 18.0 °F 23.9 °F 88% 29.82 in 10.0 mi West 9.2 mph - N/A   Clear
7:55 AM 27.7 °F 18.8 °F 24.6 °F 88% 29.83 in 10.0 mi West 9.2 mph - N/A   Clear
8:15 AM 29.3 °F 22.3 °F 25.3 °F 85% 29.83 in 10.0 mi West 6.9 mph - N/A   Clear
8:35 AM 30.7 °F 22.6 °F 26.1 °F 83% 29.83 in 10.0 mi West 9.2 mph - N/A   Clear
8:55 AM 32.0 °F 24.2 °F 26.4 °F 80% 29.83 in 10.0 mi West 9.2 mph - N/A   Clear
9:15 AM 32.7 °F 26.4 °F 27.1 °F 80% 29.84 in 10.0 mi West 6.9 mph - N/A   Clear
9:35 AM 32.9 °F 25.9 °F 27.3 °F 80% 29.85 in 10.0 mi West 8.1 mph - N/A   Clear
9:55 AM 34.7 °F 28.1 °F 27.9 °F 76% 29.86 in 10.0 mi West 8.1 mph - N/A   Clear
10:15 AM 35.6 °F 29.2 °F 28.2 °F 75% 29.88 in 10.0 mi West 8.1 mph - N/A   Clear
10:35 AM 35.6 °F 28.6 °F 28.4 °F 75% 29.88 in 10.0 mi West 9.2 mph - N/A   Clear
10:55 AM 36.0 °F 28.0 °F 29.1 °F 76% 29.88 in 10.0 mi West 11.5 mph - N/A   Clear
11:15 AM 36.0 °F 28.5 °F 29.3 °F 77% 29.88 in 10.0 mi West 10.4 mph - N/A   Clear
11:35 AM 35.8 °F 29.4 °F 28.9 °F 76% 29.87 in 10.0 mi West 8.1 mph - N/A   Clear
11:55 AM 35.6 °F 29.9 °F 29.1 °F 77% 29.86 in 10.0 mi WNW 6.9 mph - N/A   Clear
12:15 PM 35.4 °F 29.0 °F 29.7 °F 80% 29.86 in 10.0 mi WNW 8.1 mph - N/A   Clear
12:35 PM 35.6 °F 29.9 °F 29.8 °F 80% 29.85 in 10.0 mi WNW 6.9 mph - N/A   Clear
12:55 PM 35.6 °F 29.2 °F 29.5 °F 78% 29.85 in 10.0 mi WNW 8.1 mph - N/A   Clear
1:15 PM 36.1 °F 29.3 °F 29.5 °F 77% 29.84 in 10.0 mi West 9.2 mph - N/A   Clear
1:35 PM 36.0 °F 29.0 °F 29.5 °F 77% 29.85 in 10.0 mi WNW 9.2 mph 16.1 mph N/A   Clear
1:55 PM 36.1 °F 28.7 °F 30.4 °F 80% 29.85 in 10.0 mi WNW 10.4 mph - N/A   Clear
2:15 PM 37.4 °F 31.4 °F 31.1 °F 78% 29.86 in 10.0 mi West 8.1 mph - N/A   Mostly Cloudy
2:35 PM 36.3 °F 31.6 °F 30.6 °F 80% 29.86 in 10.0 mi WNW 5.8 mph - N/A   Overcast
2:55 PM 36.1 °F 29.9 °F 30.6 °F 80% 29.86 in 10.0 mi NW 8.1 mph - N/A   Overcast
3:15 PM 35.6 °F 29.2 °F 29.5 °F 78% 29.87 in 10.0 mi NW 8.1 mph - N/A   Overcast
3:35 PM 35.2 °F 28.8 °F 29.5 °F 80% 29.88 in 10.0 mi NW 8.1 mph - N/A   Mostly Cloudy
3:55 PM 34.7 °F 28.1 °F 29.3 °F 81% 29.89 in 10.0 mi NW 8.1 mph - N/A   Mostly Cloudy
4:15 PM 34.2 °F 27.5 °F 29.3 °F 82% 29.89 in 10.0 mi NW 8.1 mph - N/A   Mostly Cloudy
4:35 PM 33.8 °F 27.7 °F 28.6 °F 81% 29.90 in 10.0 mi NW 6.9 mph - N/A   Mostly Cloudy
4:55 PM 33.1 °F 26.1 °F 28.2 °F 82% 29.90 in 10.0 mi WNW 8.1 mph - N/A   Scattered Clouds
5:15 PM 32.5 °F 27.1 °F 28.2 °F 84% 29.90 in 10.0 mi NW 5.8 mph - N/A   Clear
5:35 PM 32.2 °F 27.7 °F 27.7 °F 83% 29.90 in 10.0 mi WNW 4.6 mph - N/A   Clear
5:55 PM 32.0 °F 28.7 °F 27.9 °F 85% 29.90 in 10.0 mi NW 3.5 mph - N/A   Clear
6:15 PM 31.5 °F 26.8 °F 27.7 °F 86% 29.90 in 10.0 mi NW 4.6 mph - N/A   Clear
6:35 PM 31.1 °F 26.4 °F 27.5 °F 87% 29.91 in 10.0 mi NW 4.6 mph - N/A   Clear
6:55 PM 30.6 °F - 27.1 °F 87% 29.90 in 10.0 mi Calm Calm - N/A   Clear
7:15 PM 30.2 °F 26.7 °F 26.8 °F 87% 29.90 in 10.0 mi NNW 3.5 mph - N/A   Scattered Clouds
7:35 PM 30.4 °F 24.5 °F 27.5 °F 89% 29.90 in 10.0 mi NNW 5.8 mph - N/A   Mostly Cloudy
7:55 PM 30.7 °F 26.0 °F 27.3 °F 87% 29.90 in 10.0 mi NNW 4.6 mph - N/A   Overcast
8:15 PM 30.7 °F 26.0 °F 26.6 °F 85% 29.90 in 10.0 mi NW 4.6 mph - N/A   Overcast
8:35 PM 30.4 °F 25.6 °F 26.8 °F 86% 29.90 in 10.0 mi NW 4.6 mph - N/A   Overcast
8:55 PM 30.2 °F 26.7 °F 27.0 °F 88% 29.88 in 10.0 mi NNW 3.5 mph - N/A   Overcast
9:15 PM 30.0 °F 24.1 °F 27.0 °F 88% 29.88 in 10.0 mi NW 5.8 mph - N/A   Overcast
9:35 PM 30.0 °F 23.2 °F 27.3 °F 90% 29.87 in 10.0 mi North 6.9 mph - N/A   Overcast
9:55 PM 29.7 °F 22.8 °F 27.3 °F 91% 29.86 in 7.0 mi North 6.9 mph - N/A   Overcast
10:15 PM 30.2 °F 21.9 °F 27.5 °F 90% 29.86 in 7.0 mi North 9.2 mph - N/A   Overcast
10:35 PM 30.2 °F 19.8 °F 28.2 °F 92% 29.87 in 5.0 mi North 13.8 mph - N/A   Overcast
10:55 PM 28.2 °F 15.9 °F 25.0 °F 88% 29.87 in 10.0 mi NNE 17.3 mph - N/A   Overcast
11:15 PM 27.3 °F 16.1 °F 24.6 °F 90% 29.87 in 10.0 mi NNE 13.8 mph 24.2 mph N/A   Overcast
11:35 PM 26.4 °F 12.8 °F 22.8 °F 86% 29.87 in 5.0 mi NNE 19.6 mph 23.0 mph N/A Snow Light Snow
11:55 PM 24.8 °F 10.3 °F 20.5 °F 84% 29.88 in 2.5 mi NNE 20.7 mph 24.2 mph N/A Snow Light Snow